Regional Weather Roundup
Issued by NWS

Home | Current Version | Previous Version | Graphics & Text | Print | Product List | Glossary On
Versions: 1 2 3 4 5 6 7 8 9 10 11 12 13 14 15 16 17 18 19 20 21 22 23 24 25 26 27 28 29 30 31 32 33 34 35 36 37 38 39 40 41 42 43 44 45 46 47 48 49 50
000
ASUS43 KOAX 170710
RWRNE

WEATHER ROUNDUP FOR NEBRASKA
NATIONAL WEATHER SERVICE OMAHA NE
100 AM CST SUN DEC 17 2017

NOTES: SATELLITE DATA IS BEING USED TO AUGMENT CLOUD COVER ABOVE
       12000 FEET.
       "FAIR" INDICATES FEW OR NO CLOUDS BELOW 12,000 FEET WITH NO
       SIGNIFICANT WEATHER AND/OR OBSTRUCTIONS TO VISIBILITY.


NEZ001>004-019>022-054>056-170800-
NEBRASKA PANHANDLE

CITY           SKY/WX    TMP DP  RH WIND       PRES   REMARKS
SCOTTSBLUFF    CLOUDY    32  27  81 E8        30.00F WCI  25
ALLIANCE       CLOUDY    30  28  92 NE10      29.99F WCI  21
CHADRON        CLOUDY    29  27  92 NE3       30.04F
GORDON         CLOUDY    32  29  89 N3        30.02R
KIMBALL        CLOUDY    29  29 100 E6        29.95F FOG     WCI  23
SIDNEY         CLOUDY    30  30 100 NE8       29.96F FOG     WCI  22
$$

NEZ057>060-069>072-079>082-170800-
SOUTHWEST NEBRASKA

CITY           SKY/WX    TMP DP  RH WIND       PRES   REMARKS
NORTH PLATTE   CLOUDY    37  33  85 N16       29.93F WCI  28
IMPERIAL       CLOUDY    35  33  92 N12       29.93F WCI  27
LEXINGTON      CLOUDY    35  32  88 NE10      29.95R WCI  28
MCCOOK         CLOUDY    36  32  85 NE18      29.95R WCI  26
OGALLALA       CLOUDY    36  32  86 NE10      29.96F WCI  28
$$

NEZ005>010-023>029-035>040-094-170800-
NORTH CENTRAL NEBRASKA

CITY           SKY/WX    TMP DP  RH WIND       PRES   REMARKS
VALENTINE      CLOUDY    36  31  82 N5        30.04S WCI  32
AINSWORTH      CLOUDY    35  33  94 NE3       30.03S
BROKEN BOW     CLOUDY    37  32  82 N12       29.94F WCI  29
O`NEILL        CLOUDY    34  34 100 NE5       30.04F WCI  30
ORD            CLOUDY    35  32  88 N12       29.93F WCI  27
THEDFORD       CLOUDY    36  33  90 N10       29.99F WCI  28
$$

NEZ041-046>049-061>064-073>077-083>087-170800-
SOUTH CENTRAL NEBRASKA

CITY           SKY/WX    TMP DP  RH WIND       PRES   REMARKS
GRAND ISLAND   CLOUDY    31  30  96 NE10      29.98R WCI  22
AURORA         CLOUDY    32  29  89 NE9       29.96R WCI  24
HASTINGS       CLOUDY    32  28  85 NE10      29.96R WCI  24
HEBRON         MOCLDY    35  28  73 NE3       29.92F
HOLDREGE       CLOUDY    32  31  98 NE12      29.94R WCI  23
KEARNEY        PTCLDY    30  29  96 NE9       29.98R WCI  22
YORK           MOCLDY    32  32 100 NE13      29.96R WCI  22
$$

NEZ011>018-030>034-042>045-170800-
NORTHEAST NEBRASKA

CITY           SKY/WX    TMP DP  RH WIND       PRES   REMARKS
NORFOLK        PTCLDY    30  27  88 N14       29.96F WCI  19
ALBION         PTCLDY    33  29  88 N7        29.96F WCI  26
BLAIR          CLOUDY    34  29  82 NE14      29.96S WCI  25
COLUMBUS       CLOUDY    32  28  85 NE10      29.98F WCI  24
FREMONT        CLOUDY    33  28  81 NE5       29.99R WCI  29
TEKAMAH        CLOUDY    29  23  78 N13       29.97F WCI  19
WAYNE          CLOUDY    29  28  96 N10       29.98F WCI  20
$$

NEZ050>053-065>068-078-088>093-170800-
SOUTHEAST NEBRASKA

CITY           SKY/WX    TMP DP  RH WIND       PRES   REMARKS
LINCOLN        CLOUDY    34  27  75 N6        29.99R WCI  29
OMAHA EPPLEY   CLOUDY    33  25  72 N8        29.98S WCI  26
BEATRICE       CLOUDY    36  27  69 NE8       29.92F WCI  30
FALLS CITY     MOCLDY    39  25  57 CALM      29.93S
NEBRASKA CITY  CLOUDY    34  25  71 N6        29.94S WCI  28
PLATTSMOUTH    CLOUDY    36  29  76 NE8       29.96R WCI  30
$$

NEZ044-045-051>053-067-170800-
OMAHA AREA

CITY           SKY/WX    TMP DP  RH WIND       PRES   REMARKS
OMAHA EPPLEY   CLOUDY    33  25  72 N8        29.98S WCI  26
BLAIR          CLOUDY    34  29  82 NE14      29.96S WCI  25
FREMONT        CLOUDY    33  28  81 NE5       29.99R WCI  29
MILLARD        CLOUDY    38  30  74 NE3       29.98R
OFFUTT AFB     CLOUDY    35  27  74 NE8       29.97R WCI  28
PLATTSMOUTH    CLOUDY    36  29  76 NE8       29.96R WCI  30
WAHOO          FAIR      33  28  80 N7        29.97R WCI  27
$$



USA.gov is the U.S. government's official web portal to all federal, state and local government web resources and services.